Tracking 31027 objects as of 19-Jul-2025
HD Live streaming from Space Station
objects crossing your sky now

OBJECT K

Track OBJECT K now!
10-day predictions


NORAD ID: 61236
Int'l Code: 2024-173J
Perigee: 351.6 km
Apogee: 361.9 km
Inclination: 97.4 °
Period: 91.5 minutes
Semi major axis: 6727 km
RCS: Unknown
Launch date: September 24, 2024
Source: People's Republic of China (PRC)
Launch site: Yellow Sea Launch Area, China (YSLA)
Your satellite tracking list
IRIDIUM 135
Track 1 satellite(s)




NASA's NSSDC Master Catalog

Two Line Element Set (TLE):
1 61236U 24173K   25199.88844672  .00156406  00000-0  11176-2 0  9998
2 61236  97.3995 285.4552 0007661 277.6572  82.3822 15.73258829 46004
Source of the keplerian elements: AFSPC